Total_Precipitation_Accumulation
0.81 0.85 0.74 0.76 0.80 0.96 1.14 1.26 1.33 1.59 1.72 1.48 1.22 1.11 1.06 1.12 1.05 1.11 1.01 0.95 0.91 0.98 1.21 1.33 1.20 1.05 0.90 0.80 0.75 0.70 0.66 0.60 0.55 0.49 0.51 0.56 0.57 0.58 0.54 0.48 0.42 0.37 0.31
1.02 1.06 0.99 1.01 0.96 0.99 1.16 1.37 1.54 1.88 1.91 1.79 1.42 1.28 1.21 1.20 1.13 1.10 1.10 1.14 1.07 0.99 1.01 1.12 1.19 1.10 0.99 0.88 0.77 0.68 0.62 0.61 0.54 0.42 0.37 0.42 0.46 0.48 0.52 0.54 0.48 0.40 0.34
1.15 1.18 1.06 1.03 1.11 1.26 1.42 1.48 1.67 1.96 1.69 1.67 1.42 1.35 1.24 1.08 0.95 0.95 1.07 1.11 1.00 0.93 0.99 1.03 1.03 1.02 1.01 0.99 0.92 0.81 0.65 0.57 0.50 0.43 0.37 0.37 0.40 0.40 0.41 0.46 0.48 0.42 0.35
1.22 1.36 1.22 1.15 1.50 1.61 1.67 1.81 1.95 1.94 1.79 1.74 1.52 1.30 1.18 1.11 0.89 0.80 0.80 0.83 0.89 0.76 0.86 0.97 0.93 0.89 0.97 1.07 1.13 1.11 0.91 0.71 0.59 0.51 0.44 0.43 0.46 0.43 0.36 0.36 0.40 0.36 0.28
1.39 1.58 1.51 1.59 1.88 1.94 1.91 1.86 2.08 2.06 1.89 1.81 1.65 1.34 1.06 0.97 0.83 0.72 0.62 0.56 0.62 0.66 0.66 0.72 0.76 0.78 0.96 1.19 1.27 1.24 1.11 0.90 0.69 0.59 0.56 0.56 0.60 0.52 0.36 0.31 0.35 0.36 0.28
1.57 1.82 1.67 1.68 1.90 1.99 1.92 1.88 1.84 1.91 1.74 1.72 1.64 1.29 0.94 0.72 0.68 0.57 0.46 0.43 0.42 0.42 0.47 0.56 0.63 0.58 0.72 0.98 1.06 1.17 1.26 1.11 0.86 0.72 0.71 0.74 0.79 0.69 0.42 0.31 0.32 0.33 0.33
1.51 1.77 1.68 1.78 1.83 1.78 1.75 1.81 1.81 1.67 1.40 1.61 1.64 1.21 0.78 0.63 0.59 0.41 0.38 0.36 0.32 0.31 0.36 0.46 0.55 0.57 0.56 0.62 0.81 0.93 1.10 1.12 0.94 0.82 0.80 0.82 0.91 0.90 0.59 0.43 0.40 0.35 0.38
1.57 1.65 1.69 1.70 1.74 1.73 1.61 1.58 1.66 1.50 1.27 1.43 1.50 1.39 0.87 0.63 0.51 0.39 0.43 0.48 0.45 0.43 0.40 0.43 0.49 0.58 0.64 0.73 0.78 0.66 0.74 0.98 1.09 1.06 0.96 0.82 0.79 0.82 0.71 0.66 0.61 0.54 0.54
1.74 1.74 1.69 1.58 1.46 1.42 1.33 1.34 1.45 1.44 1.29 1.29 1.47 1.59 1.20 0.81 0.70 0.54 0.52 0.52 0.54 0.56 0.51 0.51 0.52 0.61 0.69 0.81 0.91 0.89 0.68 0.78 1.00 1.23 1.20 0.95 0.72 0.67 0.72 0.75 0.78 0.72 0.72
1.54 1.39 1.27 1.25 1.20 1.20 1.10 1.05 1.16 1.19 1.12 1.08 1.21 1.34 1.39 1.33 1.19 0.74 0.50 0.43 0.51 0.57 0.61 0.56 0.49 0.53 0.65 0.79 0.93 1.07 0.85 0.70 0.74 1.02 1.18 1.07 0.85 0.69 0.66 0.75 0.97 0.97 0.79
1.18 1.02 0.93 0.92 0.90 0.91 0.87 0.83 0.85 0.87 0.91 0.92 1.06 1.21 1.30 1.32 1.29 1.14 0.76 0.67 0.67 0.62 0.63 0.60 0.59 0.58 0.59 0.72 0.90 0.93 0.98 0.88 0.79 0.73 0.81 0.92 0.97 0.87 0.83 1.01 1.30 1.45 1.29
0.79 0.67 0.64 0.66 0.71 0.77 0.75 0.73 0.75 0.75 0.81 0.92 0.96 1.07 1.19 1.17 1.16 1.21 0.97 0.84 0.76 0.65 0.66 0.69 0.69 0.73 0.68 0.73 0.77 0.93 0.91 0.73 0.65 0.63 0.61 0.68 0.80 0.86 0.90 1.09 1.44 1.76 1.86
0.62 0.55 0.53 0.56 0.63 0.69 0.66 0.63 0.63 0.73 0.85 0.93 0.92 0.99 1.10 1.12 1.15 1.23 1.17 1.05 0.94 0.86 0.87 0.88 0.72 0.61 0.52 0.55 0.60 0.63 0.56 0.46 0.41 0.40 0.42 0.46 0.54 0.67 0.84 1.03 1.27 1.55 1.75
0.58 0.57 0.52 0.53 0.54 0.59 0.58 0.61 0.61 0.68 0.80 0.87 0.85 0.97 1.07 1.13 1.25 1.36 1.36 1.32 1.17 1.04 0.98 0.91 0.75 0.60 0.53 0.53 0.46 0.41 0.36 0.33 0.25 0.22 0.24 0.25 0.32 0.44 0.62 0.78 0.95 1.12 1.26
0.50 0.57 0.56 0.57 0.59 0.63 0.65 0.71 0.76 0.84 0.98 1.04 1.09 1.19 1.22 1.19 1.22 1.29 1.33 1.35 1.36 1.19 1.00 0.89 0.77 0.65 0.61 0.61 0.51 0.43 0.44 0.31 0.19 0.16 0.16 0.16 0.22 0.32 0.38 0.44 0.57 0.71 0.85
0.41 0.49 0.56 0.57 0.59 0.60 0.64 0.74 0.93 1.09 1.18 1.23 1.26 1.33 1.37 1.33 1.33 1.38 1.36 1.39 1.45 1.34 1.11 0.89 0.80 0.74 0.70 0.58 0.51 0.46 0.38 0.25 0.18 0.15 0.13 0.12 0.15 0.20 0.21 0.24 0.32 0.42 0.55
0.36 0.40 0.46 0.50 0.53 0.56 0.59 0.68 0.82 1.00 1.11 1.14 1.16 1.23 1.24 1.22 1.21 1.20 1.26 1.36 1.45 1.43 1.20 1.00 0.98 0.98 0.91 0.77 0.65 0.53 0.40 0.29 0.21 0.16 0.12 0.10 0.10 0.13 0.15 0.17 0.21 0.25 0.34
0.35 0.36 0.37 0.39 0.41 0.45 0.51 0.61 0.74 0.85 0.93 0.96 0.96 0.96 0.93 0.91 0.93 0.93 1.01 1.09 1.17 1.31 1.27 1.13 1.17 1.18 1.12 1.01 0.91 0.77 0.54 0.35 0.26 0.23 0.17 0.14 0.11 0.11 0.12 0.14 0.20 0.25 0.30
0.27 0.28 0.30 0.35 0.42 0.52 0.61 0.67 0.71 0.74 0.76 0.79 0.85 0.89 0.83 0.78 0.79 0.80 0.82 0.83 0.88 1.05 1.13 1.14 1.16 1.21 1.20 1.15 1.00 0.84 0.72 0.52 0.35 0.27 0.23 0.19 0.16 0.13 0.12 0.13 0.17 0.25 0.31
0.21 0.25 0.30 0.37 0.45 0.52 0.61 0.66 0.66 0.65 0.61 0.57 0.61 0.66 0.68 0.65 0.64 0.68 0.71 0.72 0.75 0.88 1.01 1.08 1.14 1.24 1.24 1.16 1.05 0.88 0.85 0.71 0.56 0.43 0.36 0.29 0.28 0.23 0.19 0.16 0.16 0.20 0.30
0.21 0.26 0.31 0.38 0.42 0.44 0.45 0.42 0.41 0.41 0.39 0.36 0.35 0.38 0.44 0.49 0.52 0.53 0.57 0.66 0.73 0.78 0.86 0.91 0.97 1.10 1.27 1.28 1.08 0.93 0.93 0.89 0.77 0.60 0.49 0.40 0.35 0.29 0.26 0.21 0.18 0.18 0.24
0.22 0.27 0.32 0.37 0.38 0.33 0.37 0.28 0.20 0.20 0.24 0.28 0.31 0.32 0.34 0.37 0.41 0.43 0.44 0.51 0.63 0.70 0.74 0.78 0.84 0.95 1.10 1.20 1.21 1.15 1.02 0.89 0.82 0.74 0.65 0.60 0.52 0.46 0.42 0.34 0.25 0.20 0.20
0.23 0.26 0.27 0.27 0.29 0.32 0.31 0.24 0.15 0.15 0.18 0.21 0.25 0.28 0.26 0.27 0.31 0.32 0.33 0.34 0.37 0.46 0.56 0.67 0.73 0.77 0.85 0.95 1.03 1.03 1.07 1.08 1.04 0.94 0.88 0.92 0.77 0.63 0.55 0.46 0.29 0.20 0.19
0.29 0.28 0.27 0.26 0.31 0.31 0.27 0.22 0.17 0.15 0.20 0.22 0.24 0.25 0.23 0.20 0.21 0.25 0.29 0.28 0.26 0.26 0.31 0.41 0.52 0.65 0.79 0.91 1.00 0.93 0.92 1.00 1.10 1.11 1.00 0.99 0.93 0.84 0.72 0.61 0.44 0.28 0.21
0.35 0.32 0.31 0.32 0.35 0.36 0.30 0.22 0.18 0.20 0.26 0.27 0.27 0.24 0.22 0.19 0.18 0.19 0.24 0.29 0.30 0.28 0.27 0.30 0.37 0.55 0.74 0.82 0.95 0.92 0.78 0.69 0.70 0.72 0.77 0.89 0.91 0.88 0.85 0.74 0.57 0.37 0.25
0.43 0.37 0.34 0.36 0.40 0.45 0.41 0.28 0.22 0.25 0.33 0.34 0.38 0.32 0.25 0.21 0.21 0.19 0.21 0.24 0.26 0.26 0.28 0.27 0.29 0.38 0.52 0.65 0.75 0.81 0.75 0.61 0.48 0.43 0.35 0.41 0.58 0.71 0.85 0.84 0.74 0.60 0.44